Thedford, NE

7:59 AM CDT on September 24, 2017 (GMT -0500)
Thedford

Weather History for KTIF - April, 2013

Change the Weather History Date:

Wednesday, April 3, 2013

  Actual Average (KANW) Record (KANW)
Temperature  
Mean Temperature 46 °F -  
Max Temperature 60 °F 49 °F 73 °F (2005)
Min Temperature 34 °F 29 °F 8 °F (2002)
Degree Days  
Heating Degree Days 18    
Moisture  
Dew Point 27 °F    
Average Humidity 52    
Maximum Humidity 85    
Minimum Humidity 21    
Precipitation  
Precipitation 0.00 in - - ()
Sea Level Pressure  
Sea Level Pressure 30.12 in    
Wind  
Wind Speed 12 mph (SSW)    
Max Wind Speed 25 mph    
Max Gust Speed 34 mph    
Visibility 10 miles    
Events      
Averages and records for this station are not official NWS values.
T = Trace of Precipitation, MM = Missing Value Source: NWS Daily Summary

Daily Weather History Graph

Daily Weather History Graph

Search for Another Location

Airport or City:

Trip Planner

Search our weather history database for the weather conditions in past years. The results will help you decide how hot, cold, wet, or windy it might be!

Date:

Astronomy

Apr. 03, 2013 Rise Set
Actual Time 7:21 AM CDT 8:10 PM CDT
Civil Twilight 6:52 AM CDT 8:38 PM CDT
Nautical Twilight 6:19 AM CDT 9:12 PM CDT
Astronomical Twilight 5:44 AM CDT 9:47 PM CDT
Moon 3:09 AM CDT (4/3) 1:18 PM CDT (4/3)
Length of Visible Light 13h 45m
Length of Day
12h 49m
Last Quarter, 44% of the Moon is Illuminated
Apr 3
Last Quarter
Apr 10
New
Apr 18
First Quarter
Apr 25
Full
May 2
Last Quarter

Hourly Weather History & Observations

Time (CDT) Temp. Windchill Dew Point Humidity Pressure Visibility Wind Dir Wind Speed Gust Speed Precip Events Conditions
12:15 AM 40.1 °F 38.0 °F 29.3 °F 65% 30.15 in 10.0 mi West 3.5 mph - N/A   Clear
12:35 AM 38.5 °F 34.1 °F 29.8 °F 71% 30.15 in 10.0 mi West 5.8 mph - N/A   Clear
12:55 AM 39.2 °F 35.9 °F 30.6 °F 71% 30.15 in 10.0 mi West 4.6 mph - N/A   Clear
1:15 AM 37.4 °F - 30.0 °F 75% 30.15 in 10.0 mi Calm Calm - N/A   Clear
1:35 AM 38.3 °F 33.9 °F 30.6 °F 74% 30.15 in 10.0 mi SW 5.8 mph - N/A   Clear
1:55 AM 38.1 °F 32.9 °F 30.2 °F 73% 30.16 in 10.0 mi SW 6.9 mph - N/A   Clear
2:15 AM 38.3 °F 33.9 °F 30.7 °F 74% 30.15 in 10.0 mi SW 5.8 mph - N/A   Clear
2:35 AM 38.3 °F 32.5 °F 31.1 °F 75% 30.15 in 10.0 mi SW 8.1 mph - N/A   Clear
2:55 AM 37.8 °F 31.8 °F 31.3 °F 77% 30.15 in 10.0 mi SW 8.1 mph - N/A   Clear
3:15 AM 37.6 °F 31.6 °F 31.5 °F 79% 30.15 in 10.0 mi SW 8.1 mph - N/A   Clear
3:35 AM 37.4 °F 32.1 °F 31.5 °F 79% 30.15 in 10.0 mi SW 6.9 mph - N/A   Clear
3:55 AM 36.9 °F 30.7 °F 31.5 °F 81% 30.15 in 10.0 mi SSW 8.1 mph - N/A   Clear
4:15 AM 36.5 °F 31.8 °F 31.1 °F 81% 30.14 in 10.0 mi SSW 5.8 mph - N/A   Clear
4:35 AM 34.9 °F 29.9 °F 30.4 °F 84% 30.15 in 10.0 mi SSW 5.8 mph - N/A   Clear
4:55 AM 34.9 °F 29.9 °F 30.7 °F 85% 30.15 in 10.0 mi SSW 5.8 mph - N/A   Clear
5:15 AM 36.5 °F 31.0 °F 31.6 °F 83% 30.15 in 10.0 mi SW 6.9 mph - N/A   Clear
5:35 AM 36.9 °F 30.7 °F 31.6 °F 81% 30.15 in 10.0 mi SSW 8.1 mph - N/A   Clear
5:55 AM 37.0 °F 30.4 °F 31.5 °F 80% 30.15 in 10.0 mi SSW 9.2 mph - N/A   Clear
6:15 AM 36.7 °F 29.9 °F 31.5 °F 81% 30.16 in 10.0 mi SSW 9.2 mph - N/A   Clear
6:35 AM 36.9 °F 30.1 °F 31.5 °F 81% 30.16 in 10.0 mi SSW 9.2 mph - N/A   Clear
6:55 AM 36.9 °F 30.1 °F 31.1 °F 80% 30.17 in 10.0 mi SSW 9.2 mph - N/A   Clear
7:15 AM 36.7 °F 30.5 °F 31.1 °F 80% 30.17 in 10.0 mi SW 8.1 mph - N/A   Clear
7:35 AM 36.1 °F 30.6 °F 30.7 °F 81% 30.17 in 10.0 mi SSW 6.9 mph - N/A   Clear
7:55 AM 36.7 °F 31.2 °F 31.1 °F 80% 30.17 in 10.0 mi SW 6.9 mph - N/A   Clear
8:15 AM 37.6 °F 30.0 °F 31.8 °F 80% 30.17 in 10.0 mi SW 11.5 mph - N/A   Clear
8:35 AM 39.6 °F 31.7 °F 32.2 °F 75% 30.17 in 10.0 mi SW 13.8 mph 19.6 mph N/A   Clear
8:55 AM 41.0 °F 32.8 °F 32.2 °F 71% 30.17 in 10.0 mi SW 16.1 mph 20.7 mph N/A   Clear
9:15 AM 42.3 °F 34.1 °F 32.2 °F 67% 30.17 in 10.0 mi SW 17.3 mph 23.0 mph N/A   Clear
9:35 AM 43.5 °F 35.2 °F 32.2 °F 64% 30.17 in 10.0 mi SW 19.6 mph - N/A   Clear
9:55 AM 45.0 °F 36.6 °F 32.0 °F 60% 30.17 in 10.0 mi SW 21.9 mph 28.8 mph N/A   Clear
10:15 AM 46.8 °F - 32.0 °F 57% 30.16 in 10.0 mi SW 19.6 mph 26.5 mph N/A   Clear
10:35 AM 47.8 °F - 32.0 °F 54% 30.17 in 10.0 mi SW 19.6 mph 26.5 mph N/A   Clear
10:55 AM 49.3 °F - 32.0 °F 51% 30.17 in 10.0 mi SW 19.6 mph 25.3 mph N/A   Clear
11:15 AM 50.4 °F - 32.0 °F 49% 30.16 in 10.0 mi SSW 21.9 mph 27.6 mph N/A   Clear
11:35 AM 51.1 °F - 30.6 °F 45% 30.16 in 10.0 mi SSW 25.3 mph 29.9 mph N/A   Clear
11:55 AM 52.3 °F - 30.2 °F 43% 30.16 in 10.0 mi SW 21.9 mph 26.5 mph N/A   Clear
12:15 PM 53.4 °F - 27.7 °F 37% 30.15 in 10.0 mi SW 24.2 mph 31.1 mph N/A   Clear
12:35 PM 53.8 °F - 27.9 °F 37% 30.14 in 10.0 mi SSW 23.0 mph 31.1 mph N/A   Clear
12:55 PM 54.9 °F - 27.7 °F 35% 30.14 in 10.0 mi SSW 23.0 mph 29.9 mph N/A   Clear
1:15 PM 55.8 °F - 25.7 °F 31% 30.13 in 10.0 mi SSW 23.0 mph 34.5 mph N/A   Clear
1:35 PM 56.7 °F - 25.5 °F 30% 30.12 in 10.0 mi SSW 25.3 mph 33.4 mph N/A   Clear
1:55 PM 57.7 °F - 25.2 °F 29% 30.12 in 10.0 mi SSW 20.7 mph 29.9 mph N/A   Clear
2:15 PM 58.5 °F - 24.8 °F 27% 30.11 in 10.0 mi SSW 20.7 mph 31.1 mph N/A   Clear
2:35 PM 59.0 °F - 23.9 °F 26% 30.11 in 10.0 mi SSW 24.2 mph 31.1 mph N/A   Clear
2:55 PM 58.8 °F - 23.0 °F 25% 30.10 in 10.0 mi SSW 19.6 mph 32.2 mph N/A   Clear
3:15 PM 59.2 °F - 21.9 °F 24% 30.10 in 10.0 mi SSW 23.0 mph 29.9 mph N/A   Clear
3:35 PM 59.5 °F - 21.6 °F 23% 30.09 in 10.0 mi SSW 18.4 mph 31.1 mph N/A   Clear
3:55 PM 59.5 °F - 20.3 °F 22% 30.08 in 10.0 mi SSW 23.0 mph 28.8 mph N/A   Clear
4:15 PM 59.9 °F - 20.3 °F 22% 30.08 in 10.0 mi SSW 20.7 mph 34.5 mph N/A   Clear
4:35 PM 59.9 °F - 20.1 °F 22% 30.07 in 10.0 mi SSW 19.6 mph 31.1 mph N/A   Clear
4:55 PM 59.7 °F - 19.4 °F 21% 30.07 in 10.0 mi SSW 21.9 mph 29.9 mph N/A   Clear
5:15 PM 59.7 °F - 19.4 °F 21% 30.07 in 10.0 mi SSW 20.7 mph 25.3 mph N/A   Clear
5:35 PM 59.9 °F - 19.4 °F 21% 30.07 in 10.0 mi SSW 19.6 mph 25.3 mph N/A   Clear
5:55 PM 59.0 °F - 19.6 °F 22% 30.06 in 10.0 mi SSW 20.7 mph 28.8 mph N/A   Clear
6:15 PM 58.5 °F - 19.8 °F 22% 30.07 in 10.0 mi SSW 18.4 mph 24.2 mph N/A   Clear
6:35 PM 58.1 °F - 20.1 °F 23% 30.06 in 10.0 mi SSW 17.3 mph 24.2 mph N/A   Clear
6:55 PM 57.6 °F - 20.5 °F 24% 30.07 in 10.0 mi SSW 17.3 mph 24.2 mph N/A   Clear
7:15 PM 56.8 °F - 20.7 °F 25% 30.07 in 10.0 mi SSW 17.3 mph 24.2 mph N/A   Clear
7:35 PM 56.1 °F - 21.2 °F 26% 30.07 in 10.0 mi SSW 16.1 mph - N/A   Clear
7:55 PM 54.7 °F - 21.9 °F 28% 30.07 in 10.0 mi SSW 12.7 mph - N/A   Clear
8:15 PM 53.1 °F - 23.0 °F 31% 30.07 in 10.0 mi SSW 12.7 mph - N/A   Clear
8:35 PM 51.8 °F - 23.4 °F 33% 30.07 in 10.0 mi SSW 10.4 mph - N/A   Clear
8:55 PM 50.2 °F - 23.5 °F 35% 30.07 in 10.0 mi South 9.2 mph - N/A   Clear
9:15 PM 48.7 °F - 23.5 °F 37% 30.07 in 10.0 mi South 10.4 mph - N/A   Clear
9:35 PM 48.6 °F - 23.5 °F 37% 30.07 in 10.0 mi South 16.1 mph 20.7 mph N/A   Clear
9:55 PM 47.8 °F - 26.2 °F 43% 30.08 in 10.0 mi South 18.4 mph 23.0 mph N/A   Clear
10:15 PM 46.0 °F 38.5 °F 27.9 °F 49% 30.08 in 10.0 mi South 19.6 mph 28.8 mph N/A   Clear
10:35 PM 44.8 °F 36.6 °F 28.4 °F 53% 30.09 in 10.0 mi South 20.7 mph 27.6 mph N/A   Clear
10:55 PM 43.9 °F 35.2 °F 28.4 °F 55% 30.09 in 10.0 mi South 21.9 mph 26.5 mph N/A   Clear
11:15 PM 43.7 °F 35.4 °F 28.4 °F 55% 30.09 in 10.0 mi South 19.6 mph - N/A   Clear
11:35 PM 43.0 °F 34.8 °F 28.8 °F 57% 30.10 in 10.0 mi SSW 18.4 mph 25.3 mph N/A   Clear
11:55 PM 42.8 °F 34.8 °F 28.9 °F 58% 30.10 in 10.0 mi SSW 17.3 mph 21.9 mph N/A   Clear